Data supplied by UK-AIR on 21/3/2009
All Data GMT hour ending 
Status: R =Ratified P=Provisional,P*=As supplied
,,Horley,,,,,,,,,,,,,,,,,,,,,,,
Date,time,"Nitric oxide",status,unit,"Nitrogen dioxide",status,unit,"Nitrogen oxides as nitrogen dioxide",status,unit
 
01-01-2008,01:00,14,R,ugm-3,53,R,ugm-3,74,R,ugm-3
01-01-2008,02:00,3,R,ugm-3,23,R,ugm-3,27,R,ugm-3
01-01-2008,03:00,1,R,ugm-3,15,R,ugm-3,17,R,ugm-3
01-01-2008,04:00,3,R,ugm-3,19,R,ugm-3,23,R,ugm-3
01-01-2008,05:00,3,R,ugm-3,31,R,ugm-3,34,R,ugm-3
01-01-2008,06:00,9,R,ugm-3,38,R,ugm-3,52,R,ugm-3
01-01-2008,07:00,19,R,ugm-3,55,R,ugm-3,84,R,ugm-3
01-01-2008,08:00,28,R,ugm-3,71,R,ugm-3,113,R,ugm-3
01-01-2008,09:00,31,R,ugm-3,59,R,ugm-3,107,R,ugm-3
01-01-2008,10:00,20,R,ugm-3,53,R,ugm-3,84,R,ugm-3
01-01-2008,11:00,26,R,ugm-3,52,R,ugm-3,92,R,ugm-3
01-01-2008,12:00,13,R,ugm-3,38,R,ugm-3,57,R,ugm-3
01-01-2008,13:00,15,R,ugm-3,38,R,ugm-3,61,R,ugm-3
01-01-2008,14:00,10,R,ugm-3,36,R,ugm-3,52,R,ugm-3
01-01-2008,15:00,19,R,ugm-3,53,R,ugm-3,82,R,ugm-3
01-01-2008,16:00,13,R,ugm-3,52,R,ugm-3,71,R,ugm-3
01-01-2008,17:00,25,R,ugm-3,65,R,ugm-3,103,R,ugm-3
01-01-2008,18:00,24,R,ugm-3,67,R,ugm-3,103,R,ugm-3
01-01-2008,19:00,51,R,ugm-3,61,R,ugm-3,139,R,ugm-3
01-01-2008,20:00,50,R,ugm-3,57,R,ugm-3,134,R,ugm-3
01-01-2008,21:00,21,R,ugm-3,48,R,ugm-3,80,R,ugm-3
01-01-2008,22:00,16,R,ugm-3,44,R,ugm-3,69,R,ugm-3
01-01-2008,23:00,10,R,ugm-3,36,R,ugm-3,52,R,ugm-3
01-01-2008,24:00,8,R,ugm-3,34,R,ugm-3,46,R,ugm-3
02-01-2008,01:00,3,R,ugm-3,23,R,ugm-3,27,R,ugm-3
02-01-2008,02:00,1,R,ugm-3,19,R,ugm-3,21,R,ugm-3
02-01-2008,03:00,3,R,ugm-3,15,R,ugm-3,19,R,ugm-3
02-01-2008,04:00,1,R,ugm-3,11,R,ugm-3,13,R,ugm-3
02-01-2008,05:00,1,R,ugm-3,15,R,ugm-3,17,R,ugm-3
02-01-2008,06:00,3,R,ugm-3,13,R,ugm-3,17,R,ugm-3
02-01-2008,07:00,3,R,ugm-3,13,R,ugm-3,17,R,ugm-3
02-01-2008,08:00,3,R,ugm-3,13,R,ugm-3,17,R,ugm-3
02-01-2008,09:00,4,R,ugm-3,13,R,ugm-3,19,R,ugm-3
02-01-2008,10:00,1,R,ugm-3,13,R,ugm-3,15,R,ugm-3
02-01-2008,11:00,5,R,ugm-3,15,R,ugm-3,23,R,ugm-3
02-01-2008,12:00,4,R,ugm-3,13,R,ugm-3,19,R,ugm-3
02-01-2008,13:00,6,R,ugm-3,13,R,ugm-3,23,R,ugm-3
02-01-2008,14:00,5,R,ugm-3,15,R,ugm-3,23,R,ugm-3
02-01-2008,15:00,5,R,ugm-3,19,R,ugm-3,27,R,ugm-3
02-01-2008,16:00,5,R,ugm-3,23,R,ugm-3,31,R,ugm-3
02-01-2008,17:00,4,R,ugm-3,29,R,ugm-3,34,R,ugm-3
02-01-2008,18:00,4,R,ugm-3,32,R,ugm-3,38,R,ugm-3
02-01-2008,19:00,4,R,ugm-3,38,R,ugm-3,44,R,ugm-3
02-01-2008,20:00,4,R,ugm-3,42,R,ugm-3,48,R,ugm-3
02-01-2008,21:00,3,R,ugm-3,44,R,ugm-3,48,R,ugm-3
02-01-2008,22:00,4,R,ugm-3,44,R,ugm-3,50,R,ugm-3
02-01-2008,23:00,3,R,ugm-3,44,R,ugm-3,48,R,ugm-3
02-01-2008,24:00,3,R,ugm-3,40,R,ugm-3,44,R,ugm-3
03-01-2008,01:00,3,R,ugm-3,32,R,ugm-3,36,R,ugm-3
03-01-2008,02:00,1,R,ugm-3,25,R,ugm-3,27,R,ugm-3
03-01-2008,03:00,3,R,ugm-3,27,R,ugm-3,31,R,ugm-3
03-01-2008,04:00,1,R,ugm-3,27,R,ugm-3,29,R,ugm-3
03-01-2008,05:00,1,R,ugm-3,17,R,ugm-3,19,R,ugm-3
03-01-2008,06:00,3,R,ugm-3,21,R,ugm-3,25,R,ugm-3
03-01-2008,07:00,3,R,ugm-3,29,R,ugm-3,32,R,ugm-3
03-01-2008,08:00,3,R,ugm-3,31,R,ugm-3,34,R,ugm-3
03-01-2008,09:00,5,R,ugm-3,31,R,ugm-3,38,R,ugm-3
03-01-2008,10:00,4,R,ugm-3,32,R,ugm-3,38,R,ugm-3
03-01-2008,11:00,5,R,ugm-3,32,R,ugm-3,40,R,ugm-3
03-01-2008,12:00,8,R,ugm-3,32,R,ugm-3,44,R,ugm-3
03-01-2008,13:00,8,R,ugm-3,34,R,ugm-3,46,R,ugm-3
03-01-2008,14:00,6,R,ugm-3,36,R,ugm-3,46,R,ugm-3
03-01-2008,15:00,6,R,ugm-3,38,R,ugm-3,48,R,ugm-3
03-01-2008,16:00,6,R,ugm-3,40,R,ugm-3,50,R,ugm-3
03-01-2008,17:00,8,R,ugm-3,42,R,ugm-3,53,R,ugm-3
03-01-2008,18:00,8,R,ugm-3,42,R,ugm-3,53,R,ugm-3
03-01-2008,19:00,6,R,ugm-3,46,R,ugm-3,55,R,ugm-3
03-01-2008,20:00,9,R,ugm-3,44,R,ugm-3,57,R,ugm-3
03-01-2008,21:00,9,R,ugm-3,44,R,ugm-3,57,R,ugm-3
03-01-2008,22:00,9,R,ugm-3,42,R,ugm-3,55,R,ugm-3
03-01-2008,23:00,11,R,ugm-3,40,R,ugm-3,57,R,ugm-3
03-01-2008,24:00,11,R,ugm-3,38,R,ugm-3,55,R,ugm-3
04-01-2008,01:00,10,R,ugm-3,38,R,ugm-3,53,R,ugm-3
04-01-2008,02:00,5,R,ugm-3,38,R,ugm-3,46,R,ugm-3
04-01-2008,03:00,4,R,ugm-3,32,R,ugm-3,38,R,ugm-3
04-01-2008,04:00,3,R,ugm-3,31,R,ugm-3,34,R,ugm-3
04-01-2008,05:00,5,R,ugm-3,27,R,ugm-3,34,R,ugm-3
04-01-2008,06:00,8,R,ugm-3,31,R,ugm-3,42,R,ugm-3
04-01-2008,07:00,11,R,ugm-3,36,R,ugm-3,53,R,ugm-3
04-01-2008,08:00,19,R,ugm-3,42,R,ugm-3,71,R,ugm-3
04-01-2008,09:00,19,R,ugm-3,40,R,ugm-3,69,R,ugm-3
04-01-2008,10:00,24,R,ugm-3,38,R,ugm-3,74,R,ugm-3
04-01-2008,11:00,23,R,ugm-3,40,R,ugm-3,74,R,ugm-3
04-01-2008,12:00,20,R,ugm-3,50,R,ugm-3,80,R,ugm-3
04-01-2008,13:00,14,R,ugm-3,50,R,ugm-3,71,R,ugm-3
04-01-2008,14:00,9,R,ugm-3,38,R,ugm-3,52,R,ugm-3
04-01-2008,15:00,8,R,ugm-3,34,R,ugm-3,46,R,ugm-3
04-01-2008,16:00,5,R,ugm-3,32,R,ugm-3,40,R,ugm-3
04-01-2008,17:00,5,R,ugm-3,32,R,ugm-3,40,R,ugm-3
04-01-2008,18:00,5,R,ugm-3,27,R,ugm-3,34,R,ugm-3
04-01-2008,19:00,5,R,ugm-3,31,R,ugm-3,38,R,ugm-3
04-01-2008,20:00,4,R,ugm-3,23,R,ugm-3,29,R,ugm-3
04-01-2008,21:00,5,R,ugm-3,25,R,ugm-3,32,R,ugm-3
04-01-2008,22:00,4,R,ugm-3,19,R,ugm-3,25,R,ugm-3
04-01-2008,23:00,4,R,ugm-3,17,R,ugm-3,23,R,ugm-3
04-01-2008,24:00,4,R,ugm-3,17,R,ugm-3,23,R,ugm-3
05-01-2008,01:00,1,R,ugm-3,17,R,ugm-3,19,R,ugm-3
05-01-2008,02:00,1,R,ugm-3,15,R,ugm-3,17,R,ugm-3
05-01-2008,03:00,1,R,ugm-3,17,R,ugm-3,19,R,ugm-3
05-01-2008,04:00,3,R,ugm-3,13,R,ugm-3,17,R,ugm-3
05-01-2008,05:00,3,R,ugm-3,15,R,ugm-3,19,R,ugm-3
05-01-2008,06:00,3,R,ugm-3,29,R,ugm-3,32,R,ugm-3
05-01-2008,07:00,5,R,ugm-3,44,R,ugm-3,52,R,ugm-3
05-01-2008,08:00,5,R,ugm-3,38,R,ugm-3,46,R,ugm-3
05-01-2008,09:00,6,R,ugm-3,36,R,ugm-3,46,R,ugm-3
05-01-2008,10:00,6,R,ugm-3,32,R,ugm-3,42,R,ugm-3
05-01-2008,11:00,8,R,ugm-3,31,R,ugm-3,42,R,ugm-3
05-01-2008,12:00,13,R,ugm-3,42,R,ugm-3,61,R,ugm-3
05-01-2008,13:00,6,R,ugm-3,32,R,ugm-3,42,R,ugm-3
05-01-2008,14:00,9,R,ugm-3,44,R,ugm-3,57,R,ugm-3
05-01-2008,15:00,13,R,ugm-3,55,R,ugm-3,74,R,ugm-3
05-01-2008,16:00,9,R,ugm-3,55,R,ugm-3,69,R,ugm-3
05-01-2008,17:00,13,R,ugm-3,73,R,ugm-3,92,R,ugm-3
05-01-2008,18:00,11,R,ugm-3,65,R,ugm-3,82,R,ugm-3
05-01-2008,19:00,14,R,ugm-3,59,R,ugm-3,80,R,ugm-3
05-01-2008,20:00,31,R,ugm-3,74,R,ugm-3,122,R,ugm-3
05-01-2008,21:00,18,R,ugm-3,57,R,ugm-3,84,R,ugm-3
05-01-2008,22:00,6,R,ugm-3,42,R,ugm-3,52,R,ugm-3
05-01-2008,23:00,5,R,ugm-3,36,R,ugm-3,44,R,ugm-3
05-01-2008,24:00,3,R,ugm-3,21,R,ugm-3,25,R,ugm-3
06-01-2008,01:00,4,R,ugm-3,27,R,ugm-3,32,R,ugm-3
06-01-2008,02:00,4,R,ugm-3,27,R,ugm-3,32,R,ugm-3
06-01-2008,03:00,3,R,ugm-3,13,R,ugm-3,17,R,ugm-3
06-01-2008,04:00,1,R,ugm-3,19,R,ugm-3,21,R,ugm-3
06-01-2008,05:00,1,R,ugm-3,27,R,ugm-3,29,R,ugm-3
06-01-2008,06:00,5,R,ugm-3,38,R,ugm-3,46,R,ugm-3
06-01-2008,07:00,26,R,ugm-3,71,R,ugm-3,111,R,ugm-3
06-01-2008,08:00,76,R,ugm-3,96,R,ugm-3,212,R,ugm-3
06-01-2008,09:00,63,R,ugm-3,84,R,ugm-3,180,R,ugm-3
06-01-2008,10:00,53,R,ugm-3,73,R,ugm-3,153,R,ugm-3
06-01-2008,11:00,46,R,ugm-3,71,R,ugm-3,141,R,ugm-3
06-01-2008,12:00,33,R,ugm-3,53,R,ugm-3,103,R,ugm-3
06-01-2008,13:00,19,R,ugm-3,44,R,ugm-3,73,R,ugm-3
06-01-2008,14:00,10,R,ugm-3,38,R,ugm-3,53,R,ugm-3
06-01-2008,15:00,9,R,ugm-3,52,R,ugm-3,65,R,ugm-3
06-01-2008,16:00,5,R,ugm-3,38,R,ugm-3,46,R,ugm-3
06-01-2008,17:00,4,R,ugm-3,36,R,ugm-3,42,R,ugm-3
06-01-2008,18:00,5,R,ugm-3,50,R,ugm-3,57,R,ugm-3
06-01-2008,19:00,3,R,ugm-3,27,R,ugm-3,31,R,ugm-3
06-01-2008,20:00,3,R,ugm-3,19,R,ugm-3,23,R,ugm-3
06-01-2008,21:00,3,R,ugm-3,21,R,ugm-3,25,R,ugm-3
06-01-2008,22:00,3,R,ugm-3,23,R,ugm-3,27,R,ugm-3
06-01-2008,23:00,5,R,ugm-3,23,R,ugm-3,31,R,ugm-3
06-01-2008,24:00,4,R,ugm-3,13,R,ugm-3,19,R,ugm-3
07-01-2008,01:00,1,R,ugm-3,15,R,ugm-3,17,R,ugm-3
07-01-2008,02:00,1,R,ugm-3,10,R,ugm-3,11,R,ugm-3
07-01-2008,03:00,1,R,ugm-3,10,R,ugm-3,11,R,ugm-3
07-01-2008,04:00,3,R,ugm-3,11,R,ugm-3,15,R,ugm-3
07-01-2008,05:00,1,R,ugm-3,11,R,ugm-3,13,R,ugm-3
07-01-2008,06:00,3,R,ugm-3,13,R,ugm-3,17,R,ugm-3
07-01-2008,07:00,4,R,ugm-3,13,R,ugm-3,19,R,ugm-3
07-01-2008,08:00,3,R,ugm-3,17,R,ugm-3,21,R,ugm-3
07-01-2008,09:00,4,R,ugm-3,19,R,ugm-3,25,R,ugm-3
07-01-2008,10:00,4,R,ugm-3,17,R,ugm-3,23,R,ugm-3
07-01-2008,11:00,6,R,ugm-3,17,R,ugm-3,27,R,ugm-3
07-01-2008,12:00,5,R,ugm-3,17,R,ugm-3,25,R,ugm-3
07-01-2008,13:00,,,,,,,,,
07-01-2008,14:00,5,R,ugm-3,17,R,ugm-3,25,R,ugm-3
07-01-2008,15:00,3,R,ugm-3,13,R,ugm-3,17,R,ugm-3
07-01-2008,16:00,3,R,ugm-3,8,R,ugm-3,11,R,ugm-3
07-01-2008,17:00,4,R,ugm-3,11,R,ugm-3,17,R,ugm-3
07-01-2008,18:00,3,R,ugm-3,13,R,ugm-3,17,R,ugm-3
07-01-2008,19:00,4,R,ugm-3,15,R,ugm-3,21,R,ugm-3
07-01-2008,20:00,5,R,ugm-3,29,R,ugm-3,36,R,ugm-3
07-01-2008,21:00,13,R,ugm-3,52,R,ugm-3,71,R,ugm-3
07-01-2008,22:00,15,R,ugm-3,57,R,ugm-3,80,R,ugm-3
07-01-2008,23:00,10,R,ugm-3,50,R,ugm-3,65,R,ugm-3
07-01-2008,24:00,11,R,ugm-3,38,R,ugm-3,55,R,ugm-3
08-01-2008,01:00,9,R,ugm-3,42,R,ugm-3,55,R,ugm-3
08-01-2008,02:00,4,R,ugm-3,19,R,ugm-3,25,R,ugm-3
08-01-2008,03:00,3,R,ugm-3,21,R,ugm-3,25,R,ugm-3
08-01-2008,04:00,3,R,ugm-3,17,R,ugm-3,21,R,ugm-3
08-01-2008,05:00,4,R,ugm-3,29,R,ugm-3,34,R,ugm-3
08-01-2008,06:00,3,R,ugm-3,23,R,ugm-3,27,R,ugm-3
08-01-2008,07:00,4,R,ugm-3,34,R,ugm-3,40,R,ugm-3
08-01-2008,08:00,10,R,ugm-3,63,R,ugm-3,78,R,ugm-3
08-01-2008,09:00,8,R,ugm-3,40,R,ugm-3,52,R,ugm-3
08-01-2008,10:00,8,R,ugm-3,42,R,ugm-3,53,R,ugm-3
08-01-2008,11:00,8,R,ugm-3,34,R,ugm-3,46,R,ugm-3
08-01-2008,12:00,8,R,ugm-3,29,R,ugm-3,40,R,ugm-3
08-01-2008,13:00,8,R,ugm-3,31,R,ugm-3,42,R,ugm-3
08-01-2008,14:00,8,R,ugm-3,31,R,ugm-3,42,R,ugm-3
08-01-2008,15:00,6,R,ugm-3,29,R,ugm-3,38,R,ugm-3
08-01-2008,16:00,4,R,ugm-3,23,R,ugm-3,29,R,ugm-3
08-01-2008,17:00,4,R,ugm-3,19,R,ugm-3,25,R,ugm-3
08-01-2008,18:00,3,R,ugm-3,21,R,ugm-3,25,R,ugm-3
08-01-2008,19:00,3,R,ugm-3,23,R,ugm-3,27,R,ugm-3
08-01-2008,20:00,4,R,ugm-3,21,R,ugm-3,27,R,ugm-3
08-01-2008,21:00,4,R,ugm-3,21,R,ugm-3,27,R,ugm-3
08-01-2008,22:00,4,R,ugm-3,15,R,ugm-3,21,R,ugm-3
08-01-2008,23:00,3,R,ugm-3,11,R,ugm-3,15,R,ugm-3
08-01-2008,24:00,3,R,ugm-3,10,R,ugm-3,13,R,ugm-3
09-01-2008,01:00,1,R,ugm-3,6,R,ugm-3,8,R,ugm-3
09-01-2008,02:00,1,R,ugm-3,10,R,ugm-3,11,R,ugm-3
09-01-2008,03:00,3,R,ugm-3,13,R,ugm-3,17,R,ugm-3
09-01-2008,04:00,3,R,ugm-3,17,R,ugm-3,21,R,ugm-3
09-01-2008,05:00,3,R,ugm-3,23,R,ugm-3,27,R,ugm-3
09-01-2008,06:00,11,R,ugm-3,38,R,ugm-3,55,R,ugm-3
09-01-2008,07:00,8,R,ugm-3,36,R,ugm-3,48,R,ugm-3
09-01-2008,08:00,8,R,ugm-3,50,R,ugm-3,61,R,ugm-3
09-01-2008,09:00,10,R,ugm-3,50,R,ugm-3,65,R,ugm-3
09-01-2008,10:00,9,R,ugm-3,32,R,ugm-3,46,R,ugm-3
09-01-2008,11:00,6,R,ugm-3,21,R,ugm-3,31,R,ugm-3
09-01-2008,12:00,5,R,ugm-3,19,R,ugm-3,27,R,ugm-3
09-01-2008,13:00,8,R,ugm-3,31,R,ugm-3,42,R,ugm-3
09-01-2008,14:00,9,R,ugm-3,25,R,ugm-3,38,R,ugm-3
09-01-2008,15:00,10,R,ugm-3,34,R,ugm-3,50,R,ugm-3
09-01-2008,16:00,6,R,ugm-3,34,R,ugm-3,44,R,ugm-3
09-01-2008,17:00,9,R,ugm-3,36,R,ugm-3,50,R,ugm-3
09-01-2008,18:00,9,R,ugm-3,42,R,ugm-3,55,R,ugm-3
09-01-2008,19:00,20,R,ugm-3,61,R,ugm-3,92,R,ugm-3
09-01-2008,20:00,9,R,ugm-3,48,R,ugm-3,61,R,ugm-3
09-01-2008,21:00,5,R,ugm-3,34,R,ugm-3,42,R,ugm-3
09-01-2008,22:00,5,R,ugm-3,23,R,ugm-3,31,R,ugm-3
09-01-2008,23:00,4,R,ugm-3,15,R,ugm-3,21,R,ugm-3
09-01-2008,24:00,4,R,ugm-3,15,R,ugm-3,21,R,ugm-3
10-01-2008,01:00,1,R,ugm-3,10,R,ugm-3,11,R,ugm-3
10-01-2008,02:00,1,R,ugm-3,10,R,ugm-3,11,R,ugm-3
10-01-2008,03:00,3,R,ugm-3,11,R,ugm-3,15,R,ugm-3
10-01-2008,04:00,1,R,ugm-3,8,R,ugm-3,10,R,ugm-3
10-01-2008,05:00,1,R,ugm-3,8,R,ugm-3,10,R,ugm-3
10-01-2008,06:00,1,R,ugm-3,11,R,ugm-3,13,R,ugm-3
10-01-2008,07:00,4,R,ugm-3,23,R,ugm-3,29,R,ugm-3
10-01-2008,08:00,4,R,ugm-3,23,R,ugm-3,29,R,ugm-3
10-01-2008,09:00,10,R,ugm-3,27,R,ugm-3,42,R,ugm-3
10-01-2008,10:00,6,R,ugm-3,29,R,ugm-3,38,R,ugm-3
10-01-2008,11:00,8,R,ugm-3,27,R,ugm-3,38,R,ugm-3
10-01-2008,12:00,6,R,ugm-3,21,R,ugm-3,31,R,ugm-3
10-01-2008,13:00,5,R,ugm-3,17,R,ugm-3,25,R,ugm-3
10-01-2008,14:00,5,R,ugm-3,21,R,ugm-3,29,R,ugm-3
10-01-2008,15:00,5,R,ugm-3,19,R,ugm-3,27,R,ugm-3
10-01-2008,16:00,4,R,ugm-3,19,R,ugm-3,25,R,ugm-3
10-01-2008,17:00,5,R,ugm-3,19,R,ugm-3,27,R,ugm-3
10-01-2008,18:00,5,R,ugm-3,19,R,ugm-3,27,R,ugm-3
10-01-2008,19:00,6,R,ugm-3,27,R,ugm-3,36,R,ugm-3
10-01-2008,20:00,10,R,ugm-3,42,R,ugm-3,57,R,ugm-3
10-01-2008,21:00,8,R,ugm-3,42,R,ugm-3,53,R,ugm-3
10-01-2008,22:00,9,R,ugm-3,46,R,ugm-3,59,R,ugm-3
10-01-2008,23:00,9,R,ugm-3,36,R,ugm-3,50,R,ugm-3
10-01-2008,24:00,4,R,ugm-3,23,R,ugm-3,29,R,ugm-3
11-01-2008,01:00,1,R,ugm-3,31,R,ugm-3,32,R,ugm-3
11-01-2008,02:00,4,R,ugm-3,46,R,ugm-3,52,R,ugm-3
11-01-2008,03:00,4,R,ugm-3,34,R,ugm-3,40,R,ugm-3
11-01-2008,04:00,3,R,ugm-3,25,R,ugm-3,29,R,ugm-3
11-01-2008,05:00,1,R,ugm-3,23,R,ugm-3,25,R,ugm-3
11-01-2008,06:00,4,R,ugm-3,25,R,ugm-3,31,R,ugm-3
11-01-2008,07:00,5,R,ugm-3,31,R,ugm-3,38,R,ugm-3
11-01-2008,08:00,4,R,ugm-3,25,R,ugm-3,31,R,ugm-3
11-01-2008,09:00,6,R,ugm-3,32,R,ugm-3,42,R,ugm-3
11-01-2008,10:00,6,R,ugm-3,36,R,ugm-3,46,R,ugm-3
11-01-2008,11:00,10,R,ugm-3,40,R,ugm-3,55,R,ugm-3
11-01-2008,12:00,13,R,ugm-3,38,R,ugm-3,57,R,ugm-3
11-01-2008,13:00,13,R,ugm-3,42,R,ugm-3,61,R,ugm-3
11-01-2008,14:00,10,R,ugm-3,32,R,ugm-3,48,R,ugm-3
11-01-2008,15:00,6,R,ugm-3,32,R,ugm-3,42,R,ugm-3
11-01-2008,16:00,6,R,ugm-3,32,R,ugm-3,42,R,ugm-3
11-01-2008,17:00,5,R,ugm-3,36,R,ugm-3,44,R,ugm-3
11-01-2008,18:00,4,R,ugm-3,32,R,ugm-3,38,R,ugm-3
11-01-2008,19:00,4,R,ugm-3,27,R,ugm-3,32,R,ugm-3
11-01-2008,20:00,4,R,ugm-3,40,R,ugm-3,46,R,ugm-3
11-01-2008,21:00,4,R,ugm-3,57,R,ugm-3,63,R,ugm-3
11-01-2008,22:00,5,R,ugm-3,57,R,ugm-3,65,R,ugm-3
11-01-2008,23:00,1,R,ugm-3,38,R,ugm-3,40,R,ugm-3
11-01-2008,24:00,1,R,ugm-3,23,R,ugm-3,25,R,ugm-3
12-01-2008,01:00,1,R,ugm-3,15,R,ugm-3,17,R,ugm-3
12-01-2008,02:00,1,R,ugm-3,4,R,ugm-3,6,R,ugm-3
12-01-2008,03:00,1,R,ugm-3,8,R,ugm-3,10,R,ugm-3
12-01-2008,04:00,1,R,ugm-3,6,R,ugm-3,8,R,ugm-3
12-01-2008,05:00,3,R,ugm-3,10,R,ugm-3,13,R,ugm-3
12-01-2008,06:00,3,R,ugm-3,11,R,ugm-3,15,R,ugm-3
12-01-2008,07:00,5,R,ugm-3,29,R,ugm-3,36,R,ugm-3
12-01-2008,08:00,24,R,ugm-3,63,R,ugm-3,99,R,ugm-3
12-01-2008,09:00,24,R,ugm-3,59,R,ugm-3,96,R,ugm-3
12-01-2008,10:00,16,R,ugm-3,44,R,ugm-3,69,R,ugm-3
12-01-2008,11:00,20,R,ugm-3,44,R,ugm-3,74,R,ugm-3
12-01-2008,12:00,9,R,ugm-3,19,R,ugm-3,32,R,ugm-3
12-01-2008,13:00,6,R,ugm-3,15,R,ugm-3,25,R,ugm-3
12-01-2008,14:00,6,R,ugm-3,19,R,ugm-3,29,R,ugm-3
12-01-2008,15:00,6,R,ugm-3,23,R,ugm-3,32,R,ugm-3
12-01-2008,16:00,16,R,ugm-3,52,R,ugm-3,76,R,ugm-3
12-01-2008,17:00,14,R,ugm-3,67,R,ugm-3,88,R,ugm-3
12-01-2008,18:00,13,R,ugm-3,63,R,ugm-3,82,R,ugm-3
12-01-2008,19:00,13,R,ugm-3,65,R,ugm-3,84,R,ugm-3
12-01-2008,20:00,5,R,ugm-3,44,R,ugm-3,52,R,ugm-3
12-01-2008,21:00,4,R,ugm-3,25,R,ugm-3,31,R,ugm-3
12-01-2008,22:00,3,R,ugm-3,11,R,ugm-3,15,R,ugm-3
12-01-2008,23:00,3,R,ugm-3,13,R,ugm-3,17,R,ugm-3
12-01-2008,24:00,3,R,ugm-3,11,R,ugm-3,15,R,ugm-3
13-01-2008,01:00,3,R,ugm-3,8,R,ugm-3,11,R,ugm-3
13-01-2008,02:00,1,R,ugm-3,8,R,ugm-3,10,R,ugm-3
13-01-2008,03:00,1,R,ugm-3,6,R,ugm-3,8,R,ugm-3
13-01-2008,04:00,1,R,ugm-3,6,R,ugm-3,8,R,ugm-3
13-01-2008,05:00,1,R,ugm-3,10,R,ugm-3,11,R,ugm-3
13-01-2008,06:00,3,R,ugm-3,10,R,ugm-3,13,R,ugm-3
13-01-2008,07:00,4,R,ugm-3,21,R,ugm-3,27,R,ugm-3
13-01-2008,08:00,4,R,ugm-3,27,R,ugm-3,32,R,ugm-3
13-01-2008,09:00,4,R,ugm-3,25,R,ugm-3,31,R,ugm-3
13-01-2008,10:00,5,R,ugm-3,27,R,ugm-3,34,R,ugm-3
13-01-2008,11:00,9,R,ugm-3,32,R,ugm-3,46,R,ugm-3
13-01-2008,12:00,6,R,ugm-3,27,R,ugm-3,36,R,ugm-3
13-01-2008,13:00,10,R,ugm-3,32,R,ugm-3,48,R,ugm-3
13-01-2008,14:00,8,R,ugm-3,27,R,ugm-3,38,R,ugm-3
13-01-2008,15:00,6,R,ugm-3,23,R,ugm-3,32,R,ugm-3
13-01-2008,16:00,3,R,ugm-3,15,R,ugm-3,19,R,ugm-3
13-01-2008,17:00,3,R,ugm-3,13,R,ugm-3,17,R,ugm-3
13-01-2008,18:00,3,R,ugm-3,11,R,ugm-3,15,R,ugm-3
13-01-2008,19:00,1,R,ugm-3,11,R,ugm-3,13,R,ugm-3
13-01-2008,20:00,3,R,ugm-3,15,R,ugm-3,19,R,ugm-3
13-01-2008,21:00,4,R,ugm-3,21,R,ugm-3,27,R,ugm-3
13-01-2008,22:00,3,R,ugm-3,17,R,ugm-3,21,R,ugm-3
13-01-2008,23:00,3,R,ugm-3,13,R,ugm-3,17,R,ugm-3
13-01-2008,24:00,3,R,ugm-3,13,R,ugm-3,17,R,ugm-3
14-01-2008,01:00,3,R,ugm-3,11,R,ugm-3,15,R,ugm-3
14-01-2008,02:00,1,R,ugm-3,10,R,ugm-3,11,R,ugm-3
14-01-2008,03:00,1,R,ugm-3,6,R,ugm-3,8,R,ugm-3
14-01-2008,04:00,1,R,ugm-3,6,R,ugm-3,8,R,ugm-3
14-01-2008,05:00,1,R,ugm-3,6,R,ugm-3,8,R,ugm-3
14-01-2008,06:00,1,R,ugm-3,10,R,ugm-3,11,R,ugm-3
14-01-2008,07:00,4,R,ugm-3,25,R,ugm-3,31,R,ugm-3
14-01-2008,08:00,5,R,ugm-3,31,R,ugm-3,38,R,ugm-3
14-01-2008,09:00,6,R,ugm-3,29,R,ugm-3,38,R,ugm-3
14-01-2008,10:00,6,R,ugm-3,27,R,ugm-3,36,R,ugm-3
14-01-2008,11:00,8,R,ugm-3,32,R,ugm-3,44,R,ugm-3
14-01-2008,12:00,10,R,ugm-3,27,R,ugm-3,42,R,ugm-3
14-01-2008,13:00,9,R,ugm-3,23,R,ugm-3,36,R,ugm-3
14-01-2008,14:00,6,R,ugm-3,21,R,ugm-3,31,R,ugm-3
14-01-2008,15:00,6,R,ugm-3,23,R,ugm-3,32,R,ugm-3
14-01-2008,16:00,8,R,ugm-3,25,R,ugm-3,36,R,ugm-3
14-01-2008,17:00,8,R,ugm-3,36,R,ugm-3,48,R,ugm-3
14-01-2008,18:00,9,R,ugm-3,38,R,ugm-3,52,R,ugm-3
14-01-2008,19:00,10,R,ugm-3,40,R,ugm-3,55,R,ugm-3
14-01-2008,20:00,6,R,ugm-3,31,R,ugm-3,40,R,ugm-3
14-01-2008,21:00,5,R,ugm-3,32,R,ugm-3,40,R,ugm-3
14-01-2008,22:00,4,R,ugm-3,21,R,ugm-3,27,R,ugm-3
14-01-2008,23:00,3,R,ugm-3,17,R,ugm-3,21,R,ugm-3
14-01-2008,24:00,3,R,ugm-3,10,R,ugm-3,13,R,ugm-3
15-01-2008,01:00,3,R,ugm-3,11,R,ugm-3,15,R,ugm-3
15-01-2008,02:00,1,R,ugm-3,8,R,ugm-3,10,R,ugm-3
15-01-2008,03:00,1,R,ugm-3,4,R,ugm-3,6,R,ugm-3
15-01-2008,04:00,1,R,ugm-3,4,R,ugm-3,6,R,ugm-3
15-01-2008,05:00,1,R,ugm-3,6,R,ugm-3,8,R,ugm-3
15-01-2008,06:00,1,R,ugm-3,6,R,ugm-3,8,R,ugm-3
15-01-2008,07:00,3,R,ugm-3,13,R,ugm-3,17,R,ugm-3
15-01-2008,08:00,4,R,ugm-3,19,R,ugm-3,25,R,ugm-3
15-01-2008,09:00,4,R,ugm-3,21,R,ugm-3,27,R,ugm-3
15-01-2008,10:00,5,R,ugm-3,25,R,ugm-3,32,R,ugm-3
15-01-2008,11:00,8,R,ugm-3,32,R,ugm-3,44,R,ugm-3
15-01-2008,12:00,5,R,ugm-3,21,R,ugm-3,29,R,ugm-3
15-01-2008,13:00,6,R,ugm-3,21,R,ugm-3,31,R,ugm-3
15-01-2008,14:00,6,R,ugm-3,21,R,ugm-3,31,R,ugm-3
15-01-2008,15:00,5,R,ugm-3,21,R,ugm-3,29,R,ugm-3
15-01-2008,16:00,4,R,ugm-3,27,R,ugm-3,32,R,ugm-3
15-01-2008,17:00,4,R,ugm-3,29,R,ugm-3,34,R,ugm-3
15-01-2008,18:00,3,R,ugm-3,31,R,ugm-3,34,R,ugm-3
15-01-2008,19:00,3,R,ugm-3,27,R,ugm-3,31,R,ugm-3
15-01-2008,20:00,4,R,ugm-3,21,R,ugm-3,27,R,ugm-3
15-01-2008,21:00,3,R,ugm-3,13,R,ugm-3,17,R,ugm-3
15-01-2008,22:00,3,R,ugm-3,8,R,ugm-3,11,R,ugm-3
15-01-2008,23:00,1,R,ugm-3,13,R,ugm-3,15,R,ugm-3
15-01-2008,24:00,3,R,ugm-3,13,R,ugm-3,17,R,ugm-3
16-01-2008,01:00,1,R,ugm-3,11,R,ugm-3,13,R,ugm-3
16-01-2008,02:00,1,R,ugm-3,13,R,ugm-3,15,R,ugm-3
16-01-2008,03:00,1,R,ugm-3,15,R,ugm-3,17,R,ugm-3
16-01-2008,04:00,1,R,ugm-3,19,R,ugm-3,21,R,ugm-3
16-01-2008,05:00,4,R,ugm-3,23,R,ugm-3,29,R,ugm-3
16-01-2008,06:00,4,R,ugm-3,23,R,ugm-3,29,R,ugm-3
16-01-2008,07:00,6,R,ugm-3,46,R,ugm-3,55,R,ugm-3
16-01-2008,08:00,21,R,ugm-3,67,R,ugm-3,99,R,ugm-3
16-01-2008,09:00,19,R,ugm-3,71,R,ugm-3,99,R,ugm-3
16-01-2008,10:00,40,R,ugm-3,76,R,ugm-3,138,R,ugm-3
16-01-2008,11:00,34,R,ugm-3,57,R,ugm-3,109,R,ugm-3
16-01-2008,12:00,15,R,ugm-3,44,R,ugm-3,67,R,ugm-3
16-01-2008,13:00,14,R,ugm-3,42,R,ugm-3,63,R,ugm-3
16-01-2008,14:00,13,R,ugm-3,40,R,ugm-3,59,R,ugm-3
16-01-2008,15:00,31,R,ugm-3,63,R,ugm-3,111,R,ugm-3
16-01-2008,16:00,73,R,ugm-3,59,R,ugm-3,170,R,ugm-3
16-01-2008,17:00,129,R,ugm-3,71,R,ugm-3,267,R,ugm-3
16-01-2008,18:00,218,R,ugm-3,73,R,ugm-3,405,R,ugm-3
16-01-2008,19:00,271,R,ugm-3,80,R,ugm-3,495,R,ugm-3
16-01-2008,20:00,199,R,ugm-3,61,R,ugm-3,365,R,ugm-3
16-01-2008,21:00,225,R,ugm-3,48,R,ugm-3,392,R,ugm-3
16-01-2008,22:00,289,R,ugm-3,61,R,ugm-3,502,R,ugm-3
16-01-2008,23:00,248,R,ugm-3,59,R,ugm-3,437,R,ugm-3
16-01-2008,24:00,156,R,ugm-3,52,R,ugm-3,290,R,ugm-3
17-01-2008,01:00,208,R,ugm-3,44,R,ugm-3,361,R,ugm-3
17-01-2008,02:00,174,R,ugm-3,40,R,ugm-3,306,R,ugm-3
17-01-2008,03:00,249,R,ugm-3,55,R,ugm-3,435,R,ugm-3
17-01-2008,04:00,233,R,ugm-3,50,R,ugm-3,405,R,ugm-3
17-01-2008,05:00,241,R,ugm-3,52,R,ugm-3,420,R,ugm-3
17-01-2008,06:00,218,R,ugm-3,42,R,ugm-3,374,R,ugm-3
17-01-2008,07:00,194,R,ugm-3,55,R,ugm-3,351,R,ugm-3
17-01-2008,08:00,41,R,ugm-3,67,R,ugm-3,130,R,ugm-3
17-01-2008,09:00,29,R,ugm-3,63,R,ugm-3,107,R,ugm-3
17-01-2008,10:00,9,R,ugm-3,42,R,ugm-3,55,R,ugm-3
17-01-2008,11:00,10,R,ugm-3,38,R,ugm-3,53,R,ugm-3
17-01-2008,12:00,8,R,ugm-3,25,R,ugm-3,36,R,ugm-3
17-01-2008,13:00,6,R,ugm-3,25,R,ugm-3,34,R,ugm-3
17-01-2008,14:00,8,R,ugm-3,29,R,ugm-3,40,R,ugm-3
17-01-2008,15:00,8,R,ugm-3,25,R,ugm-3,36,R,ugm-3
17-01-2008,16:00,5,R,ugm-3,19,R,ugm-3,27,R,ugm-3
17-01-2008,17:00,4,R,ugm-3,19,R,ugm-3,25,R,ugm-3
17-01-2008,18:00,3,R,ugm-3,19,R,ugm-3,23,R,ugm-3
17-01-2008,19:00,4,R,ugm-3,21,R,ugm-3,27,R,ugm-3
17-01-2008,20:00,5,R,ugm-3,27,R,ugm-3,34,R,ugm-3
17-01-2008,21:00,4,R,ugm-3,25,R,ugm-3,31,R,ugm-3
17-01-2008,22:00,3,R,ugm-3,19,R,ugm-3,23,R,ugm-3
17-01-2008,23:00,3,R,ugm-3,11,R,ugm-3,15,R,ugm-3
17-01-2008,24:00,3,R,ugm-3,11,R,ugm-3,15,R,ugm-3
18-01-2008,01:00,1,R,ugm-3,8,R,ugm-3,10,R,ugm-3
18-01-2008,02:00,1,R,ugm-3,4,R,ugm-3,6,R,ugm-3
18-01-2008,03:00,1,R,ugm-3,2,R,ugm-3,4,R,ugm-3
18-01-2008,04:00,3,R,ugm-3,2,R,ugm-3,6,R,ugm-3
18-01-2008,05:00,3,R,ugm-3,10,R,ugm-3,13,R,ugm-3
18-01-2008,06:00,4,R,ugm-3,17,R,ugm-3,23,R,ugm-3
18-01-2008,07:00,8,R,ugm-3,34,R,ugm-3,46,R,ugm-3
18-01-2008,08:00,11,R,ugm-3,50,R,ugm-3,67,R,ugm-3
18-01-2008,09:00,10,R,ugm-3,50,R,ugm-3,65,R,ugm-3
18-01-2008,10:00,9,R,ugm-3,44,R,ugm-3,57,R,ugm-3
18-01-2008,11:00,9,R,ugm-3,38,R,ugm-3,52,R,ugm-3
18-01-2008,12:00,8,R,ugm-3,32,R,ugm-3,44,R,ugm-3
18-01-2008,13:00,8,R,ugm-3,29,R,ugm-3,40,R,ugm-3
18-01-2008,14:00,4,R,ugm-3,17,R,ugm-3,23,R,ugm-3
18-01-2008,15:00,4,R,ugm-3,17,R,ugm-3,23,R,ugm-3
18-01-2008,16:00,5,R,ugm-3,17,R,ugm-3,25,R,ugm-3
18-01-2008,17:00,4,R,ugm-3,21,R,ugm-3,27,R,ugm-3
18-01-2008,18:00,4,R,ugm-3,15,R,ugm-3,21,R,ugm-3
18-01-2008,19:00,3,R,ugm-3,13,R,ugm-3,17,R,ugm-3
18-01-2008,20:00,4,R,ugm-3,15,R,ugm-3,21,R,ugm-3
18-01-2008,21:00,3,R,ugm-3,15,R,ugm-3,19,R,ugm-3
18-01-2008,22:00,1,R,ugm-3,10,R,ugm-3,11,R,ugm-3
18-01-2008,23:00,1,R,ugm-3,8,R,ugm-3,10,R,ugm-3
18-01-2008,24:00,3,R,ugm-3,8,R,ugm-3,11,R,ugm-3
19-01-2008,01:00,3,R,ugm-3,8,R,ugm-3,11,R,ugm-3
19-01-2008,02:00,3,R,ugm-3,4,R,ugm-3,8,R,ugm-3
19-01-2008,03:00,3,R,ugm-3,4,R,ugm-3,8,R,ugm-3
19-01-2008,04:00,4,R,ugm-3,4,R,ugm-3,10,R,ugm-3
19-01-2008,05:00,4,R,ugm-3,8,R,ugm-3,13,R,ugm-3
19-01-2008,06:00,4,R,ugm-3,10,R,ugm-3,15,R,ugm-3
19-01-2008,07:00,5,R,ugm-3,13,R,ugm-3,21,R,ugm-3
19-01-2008,08:00,5,R,ugm-3,15,R,ugm-3,23,R,ugm-3
19-01-2008,09:00,5,R,ugm-3,17,R,ugm-3,25,R,ugm-3
19-01-2008,10:00,4,R,ugm-3,17,R,ugm-3,23,R,ugm-3
19-01-2008,11:00,4,R,ugm-3,13,R,ugm-3,19,R,ugm-3
19-01-2008,12:00,5,R,ugm-3,15,R,ugm-3,23,R,ugm-3
19-01-2008,13:00,5,R,ugm-3,19,R,ugm-3,27,R,ugm-3
19-01-2008,14:00,6,R,ugm-3,21,R,ugm-3,31,R,ugm-3
19-01-2008,15:00,11,R,ugm-3,29,R,ugm-3,46,R,ugm-3
19-01-2008,16:00,13,R,ugm-3,38,R,ugm-3,57,R,ugm-3
19-01-2008,17:00,11,R,ugm-3,34,R,ugm-3,52,R,ugm-3
19-01-2008,18:00,10,R,ugm-3,31,R,ugm-3,46,R,ugm-3
19-01-2008,19:00,6,R,ugm-3,21,R,ugm-3,31,R,ugm-3
19-01-2008,20:00,5,R,ugm-3,17,R,ugm-3,25,R,ugm-3
19-01-2008,21:00,5,R,ugm-3,13,R,ugm-3,21,R,ugm-3
19-01-2008,22:00,6,R,ugm-3,19,R,ugm-3,29,R,ugm-3
19-01-2008,23:00,5,R,ugm-3,11,R,ugm-3,19,R,ugm-3
19-01-2008,24:00,3,R,ugm-3,6,R,ugm-3,10,R,ugm-3
20-01-2008,01:00,3,R,ugm-3,8,R,ugm-3,11,R,ugm-3
20-01-2008,02:00,3,R,ugm-3,8,R,ugm-3,11,R,ugm-3
20-01-2008,03:00,3,R,ugm-3,8,R,ugm-3,11,R,ugm-3
20-01-2008,04:00,1,R,ugm-3,8,R,ugm-3,10,R,ugm-3
20-01-2008,05:00,3,R,ugm-3,10,R,ugm-3,13,R,ugm-3
20-01-2008,06:00,3,R,ugm-3,11,R,ugm-3,15,R,ugm-3
20-01-2008,07:00,4,R,ugm-3,15,R,ugm-3,21,R,ugm-3
20-01-2008,08:00,4,R,ugm-3,19,R,ugm-3,25,R,ugm-3
20-01-2008,09:00,5,R,ugm-3,21,R,ugm-3,29,R,ugm-3
20-01-2008,10:00,6,R,ugm-3,21,R,ugm-3,31,R,ugm-3
20-01-2008,11:00,6,R,ugm-3,23,R,ugm-3,32,R,ugm-3
20-01-2008,12:00,5,R,ugm-3,21,R,ugm-3,29,R,ugm-3
20-01-2008,13:00,6,R,ugm-3,19,R,ugm-3,29,R,ugm-3
20-01-2008,14:00,5,R,ugm-3,17,R,ugm-3,25,R,ugm-3
20-01-2008,15:00,4,R,ugm-3,19,R,ugm-3,25,R,ugm-3
20-01-2008,16:00,4,R,ugm-3,19,R,ugm-3,25,R,ugm-3
20-01-2008,17:00,4,R,ugm-3,21,R,ugm-3,27,R,ugm-3
20-01-2008,18:00,3,R,ugm-3,17,R,ugm-3,21,R,ugm-3
20-01-2008,19:00,3,R,ugm-3,19,R,ugm-3,23,R,ugm-3
20-01-2008,20:00,3,R,ugm-3,19,R,ugm-3,23,R,ugm-3
20-01-2008,21:00,3,R,ugm-3,17,R,ugm-3,21,R,ugm-3
20-01-2008,22:00,3,R,ugm-3,15,R,ugm-3,19,R,ugm-3
20-01-2008,23:00,3,R,ugm-3,15,R,ugm-3,19,R,ugm-3
20-01-2008,24:00,3,R,ugm-3,11,R,ugm-3,15,R,ugm-3
21-01-2008,01:00,3,R,ugm-3,10,R,ugm-3,13,R,ugm-3
21-01-2008,02:00,3,R,ugm-3,10,R,ugm-3,13,R,ugm-3